Theta_e
304 305 305 306 305 304 303 304 304 304 304 304 305 305 306 308 309 310 311 311 311 311 310 310 310 310 311 311 312 310 311 315 319 319 319 319 321 322 319 313 314 313 318 335 342 343 344 343 346 345 343 343 342 342 346 347 346 348 354 351 344 348 348 349 353 348 350 354 357 358 357 361 361 357 356 355 356 355 352 351 350 350 350 350 351 351 351 351
304 304 305 306 306 305 304 304 305 305 306 306 307 307 308 309 309 310 311 311 311 311 311 311 311 311 311 311 312 311 313 318 319 320 321 324 327 329 327 316 315 315 319 335 341 342 342 341 343 342 341 341 341 342 344 345 345 348 352 347 344 352 353 349 350 349 349 352 352 357 355 357 359 355 354 357 357 353 354 353 351 352 350 349 351 351 351 351
303 304 305 306 306 305 304 304 305 306 307 308 308 309 309 309 309 310 310 310 311 311 311 311 311 312 312 311 312 313 315 319 321 323 322 324 329 333 331 318 317 316 319 335 338 338 341 340 341 338 337 338 339 341 342 345 345 347 349 348 348 353 353 349 349 349 349 350 352 355 354 356 354 353 354 356 356 354 356 354 353 353 350 348 348 351 352 351
303 304 305 306 306 305 304 304 305 307 308 308 309 309 309 309 309 309 309 310 310 311 311 311 312 312 312 312 312 314 316 321 322 322 319 321 329 335 331 319 318 318 323 335 334 335 339 339 339 336 335 336 336 339 342 343 343 346 346 348 350 351 351 351 349 348 348 349 354 354 354 355 353 354 354 355 357 355 355 353 354 353 351 348 347 350 352 351
303 304 305 306 306 305 304 304 305 307 308 309 309 309 309 308 309 309 309 309 309 310 310 312 313 312 313 312 313 315 319 320 319 319 317 322 326 330 328 319 318 323 330 334 331 333 337 339 337 333 333 333 334 336 338 340 342 346 346 346 348 349 351 351 349 348 348 348 353 354 354 355 352 353 353 354 358 355 353 352 353 351 349 349 348 350 351 350
302 303 305 306 307 306 304 304 306 307 308 308 309 309 308 308 308 309 309 309 309 308 311 313 313 313 313 312 314 317 321 315 316 318 316 322 326 327 325 317 319 329 336 334 331 334 336 336 333 332 332 330 334 335 334 337 339 343 345 345 347 348 351 351 348 348 347 346 351 353 352 354 353 354 354 354 355 353 351 351 351 350 350 350 350 350 349 349
302 303 304 305 307 306 304 305 306 307 307 307 308 308 308 308 308 309 309 308 308 309 313 314 313 313 312 314 317 319 320 313 317 317 316 325 329 325 321 317 322 333 337 335 333 332 334 333 330 330 330 326 331 332 331 336 338 340 340 344 345 345 349 348 349 349 346 344 347 348 350 352 353 354 353 353 353 351 351 351 351 351 352 351 349 347 347 348
301 302 304 305 307 306 305 305 305 306 306 306 307 308 308 308 308 308 309 308 309 312 314 313 313 313 312 316 320 318 315 315 317 317 317 330 331 321 319 322 328 333 334 333 329 329 330 330 329 327 327 325 327 328 330 333 334 337 336 338 343 344 345 346 347 347 344 344 343 344 348 351 351 352 353 353 352 351 351 351 350 351 351 350 347 346 347 348
302 302 303 305 306 307 305 305 306 305 305 306 306 307 307 307 307 307 308 309 311 314 314 313 313 312 313 316 319 314 315 315 317 317 316 329 332 324 326 329 330 331 331 330 326 328 328 327 327 325 325 323 324 326 328 328 329 334 333 334 338 341 343 343 344 344 342 344 343 344 348 349 349 350 352 352 352 351 351 352 350 350 350 349 348 346 346 346
301 302 303 305 306 307 305 305 305 305 305 306 306 307 306 306 306 307 309 312 313 313 312 313 312 312 316 319 318 315 317 316 317 318 315 326 333 329 332 330 328 330 330 330 328 326 327 326 325 323 323 323 324 324 325 326 326 331 333 332 335 336 339 340 341 343 342 343 343 344 347 348 348 351 352 350 351 352 352 353 351 351 350 349 348 346 347 347
301 301 303 304 306 306 305 305 305 306 306 306 307 307 306 306 307 309 312 313 312 311 311 313 312 313 319 319 318 318 317 317 318 316 315 325 332 331 333 330 327 330 329 330 329 326 326 325 324 324 323 322 324 323 323 325 325 329 332 332 332 332 334 336 338 339 341 344 342 342 345 347 348 351 352 350 351 352 353 354 352 352 351 350 349 347 349 348
301 301 302 304 306 306 306 305 305 306 307 307 307 306 306 307 308 310 313 312 310 310 311 313 312 315 321 318 316 317 317 318 317 316 315 320 326 329 332 329 325 328 330 330 328 327 327 326 325 324 321 320 321 322 322 324 325 326 328 328 329 331 334 333 335 339 340 343 341 342 342 346 350 351 350 351 351 353 354 354 353 353 352 351 350 348 349 349
301 301 303 305 306 306 306 306 306 307 308 308 307 307 307 307 308 312 313 310 309 312 313 313 315 318 322 318 315 314 315 317 317 317 314 314 319 324 330 329 325 326 328 329 328 327 326 326 326 323 321 320 320 321 321 324 324 324 324 325 326 327 330 334 336 339 341 341 341 343 336 341 351 348 348 351 351 352 354 355 354 353 353 351 350 348 348 349
301 301 303 305 306 306 306 306 306 308 308 308 307 307 308 307 310 313 312 309 311 315 315 316 318 320 323 317 314 313 313 316 318 317 313 313 316 321 328 329 326 325 324 326 327 327 326 326 325 323 321 319 322 322 320 322 323 324 322 324 324 319 322 333 337 338 342 340 341 342 332 338 350 347 347 350 350 352 354 355 354 353 354 351 351 350 348 348
301 301 303 305 306 306 306 306 306 308 309 309 307 307 309 309 311 314 311 309 312 316 316 318 320 323 323 315 315 314 314 318 318 314 311 313 313 319 328 330 328 324 320 323 327 327 326 324 323 322 320 319 321 321 319 320 324 324 319 316 321 317 321 335 338 339 342 340 342 342 335 340 350 346 348 351 350 353 353 355 356 354 355 352 352 351 348 348
301 301 303 306 307 307 307 307 307 307 309 309 307 307 310 311 313 315 312 309 313 317 319 322 322 323 321 313 314 314 315 316 314 311 312 313 312 318 328 330 328 323 320 321 324 327 324 323 322 321 321 320 320 320 319 317 318 323 319 312 316 317 319 328 335 339 341 341 343 342 340 345 351 346 348 351 350 351 352 354 355 355 355 354 353 352 349 348
301 301 304 306 307 307 307 307 307 307 309 309 307 308 311 312 314 316 314 312 315 319 320 322 321 322 319 312 313 312 313 312 312 312 312 312 312 318 328 328 324 322 321 320 321 325 323 322 322 321 322 321 320 320 317 312 312 317 320 315 316 318 318 320 330 337 339 342 345 344 344 347 350 346 347 350 350 352 352 352 355 355 355 355 354 353 351 350
300 301 303 306 307 307 307 307 307 308 309 309 308 308 311 313 313 316 318 317 318 321 322 320 320 321 315 312 312 311 312 312 312 312 313 313 312 319 327 326 321 321 320 319 319 322 322 322 322 322 321 320 322 320 313 312 313 312 315 315 315 318 319 320 326 335 338 340 344 345 345 347 346 345 347 349 350 351 351 352 354 355 355 356 356 353 353 352
300 301 303 306 308 308 308 308 308 308 308 310 310 309 313 317 316 315 318 316 317 321 320 316 315 316 312 311 311 311 312 311 312 313 315 314 312 321 329 324 321 320 320 320 319 320 322 323 323 321 320 320 321 320 316 318 319 317 317 318 315 315 319 324 328 333 338 339 342 344 343 346 346 345 347 347 348 351 352 351 353 355 356 357 356 355 354 353
300 300 302 306 308 308 308 309 309 308 308 311 313 311 314 317 316 315 314 311 311 311 312 310 310 311 310 310 311 311 311 312 313 314 315 314 315 324 327 322 321 320 320 321 318 320 322 322 322 321 321 321 321 321 321 321 322 323 320 319 318 316 318 326 329 330 336 337 339 343 343 346 346 344 347 346 348 350 349 351 354 354 356 356 357 356 355 354
300 300 302 306 308 308 308 309 309 308 309 311 313 313 312 311 312 313 311 311 310 309 309 310 309 309 310 311 310 310 310 312 314 314 314 315 318 324 325 322 322 320 321 321 319 320 320 319 321 322 322 322 322 322 321 321 322 323 321 318 318 318 320 325 328 329 333 333 335 343 343 344 346 344 345 345 347 349 348 350 353 355 356 356 358 357 356 355
300 300 301 305 308 309 308 308 309 309 310 312 312 312 311 310 311 311 310 311 311 310 310 310 310 310 310 311 310 310 310 312 313 314 314 314 317 322 324 323 322 322 321 320 320 319 318 318 319 322 321 321 322 321 321 321 321 321 320 316 315 317 320 324 328 330 331 330 333 341 340 340 344 344 344 344 346 348 348 348 352 355 357 356 357 357 357 356
300 301 301 305 308 308 308 308 309 310 310 312 312 311 311 311 311 311 310 311 310 310 310 309 310 309 309 310 309 310 311 311 313 313 314 315 315 317 322 324 323 322 321 320 321 318 316 317 319 321 319 320 321 321 322 321 321 321 318 314 313 318 319 316 323 330 331 329 332 337 336 337 342 342 343 343 344 347 347 348 350 353 356 357 357 356 357 357
301 303 302 304 308 309 308 308 310 311 311 311 311 311 311 310 312 311 310 311 311 309 310 309 310 309 308 309 309 310 311 311 312 313 314 314 314 315 318 322 323 323 323 320 320 318 318 319 320 319 319 321 320 321 322 320 318 318 318 315 315 320 321 319 324 330 330 328 331 332 327 329 338 340 342 341 343 346 347 348 350 352 355 355 355 356 356 357
304 305 303 303 307 309 308 309 310 310 311 312 311 310 311 311 312 312 311 312 310 310 310 310 310 309 307 309 310 310 310 311 312 313 314 314 314 314 316 318 321 323 325 322 320 319 319 320 320 319 319 320 319 320 320 318 315 315 319 318 318 321 324 324 328 327 321 320 326 328 319 321 333 337 341 340 342 345 346 348 350 351 355 356 356 356 355 357
306 307 305 303 306 308 309 311 311 310 312 311 310 310 311 311 312 311 312 312 310 310 310 309 309 308 308 309 310 311 310 311 312 312 314 314 314 314 315 316 318 320 322 324 323 321 320 320 319 320 319 319 319 318 318 319 314 312 317 321 320 321 323 326 327 322 316 316 326 328 319 317 324 331 340 341 341 344 345 347 348 351 355 356 356 356 356 356
307 308 306 303 306 309 311 312 311 310 311 310 310 310 311 312 312 311 311 312 310 310 310 309 309 308 308 309 309 311 312 311 311 312 314 314 314 314 314 316 317 317 320 323 321 321 323 321 321 320 320 318 317 317 318 320 314 312 319 321 320 319 320 324 325 320 318 319 325 328 323 317 317 326 338 341 340 344 345 347 349 350 354 355 355 356 356 356
307 308 306 303 306 308 308 310 312 311 311 310 310 310 310 312 312 311 312 312 310 310 309 309 308 308 309 310 309 310 311 310 310 312 313 314 315 315 314 315 317 316 319 321 317 320 323 323 322 321 319 318 318 319 319 319 316 317 320 321 321 321 319 321 322 319 320 320 317 321 324 320 316 324 337 341 339 340 344 347 348 349 354 356 355 354 356 357
307 308 305 303 307 309 307 309 311 311 310 310 311 310 310 312 312 312 312 312 311 309 308 308 308 308 309 310 308 309 309 309 310 311 313 314 315 315 315 315 315 315 316 318 317 319 322 323 323 322 320 319 319 320 320 318 318 318 320 322 323 322 320 319 318 317 318 319 315 317 320 319 316 320 328 334 333 337 343 346 346 349 351 354 355 354 355 356
307 307 304 303 309 311 310 311 311 309 310 310 310 309 311 312 312 313 313 313 311 309 308 309 309 308 310 310 309 308 309 309 310 310 313 315 314 314 315 314 314 315 315 316 318 319 320 322 323 322 323 321 320 321 320 320 320 320 320 321 322 323 321 319 317 315 315 317 317 317 318 318 316 318 324 330 332 336 343 343 345 347 349 353 354 353 353 355
307 305 304 306 310 311 310 312 311 309 309 310 310 310 311 312 312 313 314 311 309 309 309 309 309 308 309 309 309 309 308 309 310 312 313 314 315 315 315 314 315 314 314 314 316 318 319 320 322 322 323 323 322 322 322 322 320 321 320 318 318 318 319 317 316 315 315 315 316 317 319 318 314 317 325 332 335 337 339 339 343 345 346 350 352 351 351 354
306 306 306 307 308 309 310 311 309 308 309 309 311 311 311 312 313 313 312 309 309 310 309 308 309 308 308 309 309 309 309 308 309 311 312 314 315 315 315 315 315 314 312 312 313 315 317 319 320 322 322 323 323 321 322 322 321 321 320 316 314 314 318 318 316 316 315 314 316 318 318 316 315 321 328 333 335 336 336 336 340 343 345 350 351 351 352 352
306 306 307 307 307 309 310 309 309 309 309 310 312 312 312 314 315 313 311 309 309 309 308 308 308 308 309 309 309 308 309 308 308 310 312 313 315 315 314 314 314 314 313 313 313 311 313 317 319 319 321 322 323 321 318 319 320 320 317 314 313 314 319 322 318 317 316 315 316 318 318 315 314 322 330 332 332 335 336 336 338 339 344 347 350 350 350 352
306 305 307 308 308 310 309 309 310 309 310 311 312 312 313 315 315 313 311 310 308 308 308 308 308 309 309 308 308 308 309 309 308 309 311 313 314 315 316 315 313 314 315 314 313 311 311 314 317 318 319 322 323 322 320 321 321 321 320 318 315 313 317 321 318 317 317 315 316 318 317 314 314 321 329 330 330 333 333 334 336 337 339 344 347 346 348 349
306 306 308 310 310 310 309 309 309 309 311 312 311 313 315 315 314 312 311 309 308 308 308 307 308 309 309 309 308 307 308 308 308 308 310 312 313 315 315 315 313 313 315 314 314 314 311 312 317 320 319 321 323 322 323 323 320 322 323 318 315 315 317 317 316 316 315 315 316 316 316 318 320 327 330 329 328 330 331 333 334 334 337 340 343 343 346 348
308 308 310 311 310 309 309 309 309 309 311 312 313 315 315 313 311 311 310 308 308 308 308 308 309 309 310 310 309 308 307 308 308 308 310 311 312 314 314 314 313 311 313 314 316 316 313 313 318 320 319 320 322 322 323 322 319 321 320 316 318 322 320 316 315 316 315 316 318 316 316 320 322 327 328 328 328 328 330 331 330 332 334 337 340 342 344 346
310 310 311 312 310 309 310 309 309 310 311 312 314 314 312 310 309 309 308 307 307 308 308 310 310 309 310 310 309 309 308 308 309 308 309 309 311 313 313 313 312 311 311 312 315 317 315 315 317 318 320 321 321 323 323 323 322 320 318 318 321 323 322 318 316 316 317 317 318 314 315 316 316 320 327 327 327 327 329 329 330 330 331 334 336 339 343 345
311 310 312 312 310 309 310 309 310 311 312 313 314 313 311 310 309 308 307 307 307 308 308 310 310 309 309 309 309 309 308 309 309 309 309 308 311 313 312 312 312 311 310 310 312 315 315 315 316 317 318 320 321 322 321 323 324 322 321 324 322 317 318 318 317 318 318 317 317 314 314 314 313 317 324 326 327 326 327 327 329 329 330 331 332 337 342 343
312 311 312 311 309 310 309 310 312 312 312 314 315 313 310 310 309 308 307 307 307 308 308 309 309 309 309 308 309 309 309 309 309 310 310 309 310 312 311 311 311 310 310 310 311 313 314 316 317 317 318 320 320 320 318 319 322 323 324 326 324 319 318 318 318 319 318 318 317 316 314 313 316 322 325 328 329 327 328 329 328 328 329 330 330 332 339 341
312 312 312 310 309 310 309 311 313 312 312 314 314 312 310 310 309 308 308 307 307 308 308 309 308 309 309 308 308 309 309 308 308 309 309 308 309 311 310 310 309 309 309 309 310 312 314 316 317 318 318 318 318 319 319 319 320 321 320 321 322 321 321 320 319 318 318 317 317 318 316 314 321 328 328 328 330 328 330 329 328 329 329 330 331 333 337 341
313 314 312 310 309 309 311 313 313 312 312 312 312 311 311 311 309 308 308 307 308 307 307 308 308 308 309 308 309 309 308 308 308 309 309 308 308 310 310 309 309 308 308 309 311 312 314 316 317 317 316 316 317 319 320 321 321 322 320 319 320 320 319 319 319 318 316 316 316 318 316 316 323 330 328 327 329 327 328 328 328 330 329 330 331 333 337 339
314 314 312 310 309 310 311 312 311 311 312 311 311 311 311 311 309 308 308 308 308 308 307 308 308 308 308 308 309 308 308 308 309 308 308 308 308 309 309 309 308 308 308 309 311 312 313 316 317 317 316 316 318 320 321 321 322 322 321 322 324 322 318 316 316 317 316 316 317 317 315 319 327 331 328 328 330 328 328 329 328 329 329 330 330 333 336 339
313 312 312 310 310 311 312 312 311 311 311 310 310 310 310 310 309 309 308 308 308 308 308 308 308 308 309 309 308 308 308 308 309 308 308 309 308 309 309 309 308 308 308 310 311 312 313 315 317 318 318 317 318 319 319 321 321 321 321 323 324 324 321 321 320 319 318 316 317 318 316 319 327 332 330 330 329 328 329 330 329 329 329 330 332 333 335 341
312 311 311 310 310 311 312 312 311 311 310 310 310 310 310 310 309 309 309 309 309 309 308 308 309 308 308 308 308 308 308 309 309 308 309 309 309 309 309 309 308 308 308 310 310 312 313 315 318 319 319 319 317 317 318 320 320 319 321 324 325 325 325 324 323 323 321 317 317 318 316 318 328 334 331 330 331 329 330 329 329 331 330 330 334 335 337 344
312 312 312 311 311 311 310 310 310 310 310 310 310 310 310 310 309 309 309 309 309 308 308 309 308 308 309 309 308 309 309 308 309 309 309 308 308 309 309 308 308 308 308 310 310 311 312 315 318 320 321 319 318 319 318 319 320 320 321 323 324 324 325 323 321 321 320 320 319 318 316 320 330 336 333 332 329 327 329 331 329 329 330 332 336 340 342 347
312 314 314 312 311 310 309 309 309 309 309 310 310 310 309 310 310 309 309 309 309 308 308 309 308 308 309 309 308 309 308 308 308 309 308 308 308 308 308 308 308 308 309 310 310 310 312 314 316 319 321 320 321 323 321 319 320 320 320 321 322 324 324 324 322 319 320 321 320 321 321 321 327 334 333 332 332 335 339 341 340 341 340 339 340 340 341 342
312 313 312 312 312 311 310 309 308 309 309 309 310 309 309 309 310 309 309 309 310 309 309 309 308 308 309 310 310 309 309 309 310 309 309 309 308 308 309 308 308 309 310 310 310 310 312 313 314 315 317 317 318 320 318 318 319 319 319 319 320 322 323 323 321 322 325 323 319 325 327 322 324 332 337 341 347 351 352 353 352 352 351 350 350 348 343 338
312 311 310 310 311 311 310 310 309 309 309 309 309 309 308 308 309 309 309 309 309 309 310 310 309 309 309 310 310 311 311 311 312 311 311 310 310 310 309 309 309 309 309 309 309 310 311 311 311 312 313 314 314 316 316 316 317 318 318 318 319 321 321 321 322 324 326 324 321 327 330 327 327 334 343 349 354 354 354 356 355 355 355 355 356 355 349 343
311 310 309 309 310 310 309 309 309 309 309 309 309 309 309 309 308 308 308 308 309 309 310 310 310 309 309 309 310 311 312 312 311 311 311 311 310 310 310 310 310 309 309 308 309 310 310 311 310 310 311 313 312 314 315 315 316 317 318 318 318 319 320 321 324 326 326 326 327 330 331 330 336 343 346 350 352 350 352 355 355 356 356 357 356 356 354 353
310 310 310 310 310 310 309 309 309 310 309 309 310 310 309 309 309 308 308 308 309 310 309 309 309 309 309 309 311 311 311 311 311 311 311 311 311 310 310 310 310 310 309 309 309 310 310 310 311 310 312 313 313 313 314 315 316 317 318 319 318 319 320 321 324 327 326 326 327 330 328 328 339 345 344 347 349 350 353 354 354 355 355 356 357 356 356 357
309 309 310 311 311 311 310 309 309 310 310 310 311 310 309 309 309 308 308 308 309 310 309 309 309 309 309 310 311 311 310 310 310 310 310 310 310 309 310 309 309 310 311 310 310 310 309 309 310 310 311 312 312 314 316 315 316 318 317 318 318 318 320 323 328 332 330 329 330 329 325 328 338 341 342 344 348 349 351 354 354 354 353 354 355 355 356 358
309 309 310 310 312 311 310 310 310 310 311 310 310 310 309 309 308 308 309 309 309 309 309 309 309 309 309 311 311 310 309 308 308 308 308 308 308 308 308 308 308 309 310 310 310 309 309 309 309 310 311 312 312 314 316 316 318 318 318 319 319 318 323 331 335 335 334 335 334 330 328 333 337 337 339 344 345 348 353 354 353 352 351 351 350 350 352 353
Wind_Speed
29 29 27 27 27 26 24 22 22 21 20 19 18 16 15 15 14 13 13 14 14 13 14 14 14 14 13 11 9 9 8 7 6 8 11 7 5 6 9 6 12 17 23 22 20 20 18 16 14 15 12 9 8 7 8 8 6 5 5 5 4 3 0 3 4 5 1 4 7 9 10 9 9 9 6 6 6 8 10 7 8 7 5 8 15 24 29 30
30 29 28 27 27 26 24 22 22 21 20 19 18 17 16 15 15 14 14 14 15 14 12 13 14 13 12 10 8 8 7 7 9 10 10 8 11 10 8 7 14 21 26 23 24 24 19 16 17 16 11 7 6 7 8 7 7 7 5 5 4 1 2 3 4 4 3 3 4 8 10 8 9 10 9 8 9 11 10 9 9 9 9 11 18 25 29 30
30 30 29 28 27 26 24 21 21 20 19 19 18 17 16 15 15 15 14 14 14 13 12 12 12 12 10 8 8 7 6 8 8 4 3 12 14 13 7 9 18 26 28 24 26 25 20 18 19 17 11 8 6 7 8 7 8 7 6 6 3 1 1 2 2 3 3 3 2 8 9 8 8 9 9 8 10 11 10 10 11 11 13 14 18 24 29 30
31 30 30 28 27 25 23 21 20 19 19 19 18 17 16 16 16 15 14 13 12 12 13 12 10 9 8 7 7 5 5 8 3 3 12 15 11 12 8 13 24 30 26 21 23 22 18 17 18 15 10 8 8 8 8 8 7 6 7 6 1 2 3 2 3 4 5 3 1 6 8 8 8 8 8 8 8 9 9 10 12 13 16 17 19 23 28 29
32 31 31 29 27 25 23 20 18 18 18 19 19 18 17 16 16 15 13 12 12 12 14 12 8 6 7 7 6 2 6 4 4 6 18 18 7 8 9 20 29 29 22 19 20 19 17 17 16 13 9 8 9 9 10 11 8 5 8 9 3 1 2 3 4 4 5 4 3 5 7 7 8 8 8 9 8 4 5 10 11 14 19 20 21 23 25 26
33 32 31 30 28 25 22 20 17 17 17 18 19 18 17 17 17 16 14 13 13 13 13 9 5 5 7 7 4 3 7 1 4 10 22 19 9 3 12 26 31 25 19 19 19 17 17 17 15 12 9 9 10 10 9 11 11 7 8 9 7 6 3 3 4 1 4 2 2 3 5 5 7 9 8 10 6 3 4 9 12 15 20 23 24 24 24 24
34 33 32 30 28 25 21 19 17 16 17 18 18 18 18 17 17 16 14 14 14 13 9 5 4 4 7 6 3 6 7 2 4 12 23 19 13 2 20 30 29 23 19 21 19 17 17 18 16 12 10 10 10 12 8 8 12 10 8 8 8 8 6 5 5 3 4 3 1 1 4 6 8 7 7 10 7 3 5 10 14 16 21 23 24 23 23 24
35 34 33 31 29 25 21 19 17 16 17 18 18 19 19 18 18 17 15 14 13 9 4 3 3 4 5 3 5 7 4 4 5 12 20 15 9 9 23 25 25 23 21 22 20 18 17 18 18 12 11 10 9 11 8 6 11 13 12 9 6 7 7 7 6 5 5 4 2 2 5 7 8 6 5 9 8 6 8 12 15 17 20 21 22 23 22 22
36 35 34 32 29 25 21 18 16 16 18 19 19 19 19 18 18 16 13 11 9 5 3 3 3 4 4 2 8 5 2 6 6 11 15 10 4 12 18 18 24 23 20 22 20 20 17 15 18 13 10 9 8 10 10 8 7 10 14 12 8 7 6 6 7 7 6 4 3 4 7 6 7 6 6 9 8 9 11 14 17 18 20 20 20 22 22 22
36 36 35 33 29 25 20 18 16 17 18 19 20 21 20 18 16 13 10 8 5 4 4 3 3 3 3 4 8 2 5 6 4 9 12 7 4 11 12 14 23 21 19 20 19 21 16 14 17 11 6 7 8 9 11 10 4 2 8 12 12 12 9 8 8 8 8 7 6 6 7 5 7 7 6 8 10 11 13 15 17 18 19 19 19 20 21 22
36 36 36 33 29 24 19 17 16 17 18 19 21 22 19 15 11 9 6 5 6 7 6 4 4 3 4 6 5 2 6 5 3 8 9 6 4 10 9 9 19 21 18 18 19 21 18 15 14 9 4 5 7 9 11 11 8 4 5 8 12 13 12 13 13 12 10 7 8 8 8 6 8 8 6 9 12 13 14 15 17 17 17 18 19 19 18 19
37 37 36 33 29 23 18 16 16 16 17 20 22 20 15 11 8 6 4 7 10 9 5 3 3 2 6 5 2 6 4 3 5 6 6 4 3 6 7 8 16 19 15 15 17 19 18 14 13 11 5 2 6 7 7 10 10 9 8 9 10 11 12 14 14 13 11 8 7 7 8 9 10 10 8 10 13 14 15 15 16 16 15 17 18 17 16 18
37 37 36 33 28 22 18 16 15 16 18 21 21 15 12 10 7 3 4 11 12 6 2 1 1 3 6 1 4 5 3 5 5 4 5 1 2 4 5 7 13 16 12 13 15 17 17 13 14 15 7 4 6 1 2 6 10 11 10 9 9 9 11 13 14 13 12 9 8 8 7 7 9 12 11 12 15 15 15 15 15 15 14 15 16 15 16 19
36 37 37 32 26 21 17 15 14 16 19 22 18 12 12 9 3 1 6 14 9 3 4 4 2 5 6 3 5 5 6 5 4 4 5 2 3 4 7 6 11 14 10 9 12 15 14 12 13 14 9 7 5 1 4 6 7 9 10 8 8 8 9 11 13 14 14 10 10 10 7 3 7 13 14 13 16 16 14 15 15 14 14 14 15 16 16 18
36 38 37 31 25 20 17 14 14 16 20 22 15 11 13 6 1 0 8 14 7 2 5 3 0 6 4 5 3 5 8 6 6 6 5 2 3 5 8 7 10 14 11 9 8 11 12 10 12 10 9 9 7 5 7 6 5 8 8 8 9 8 8 9 12 14 15 11 13 13 6 4 9 13 15 14 16 17 15 15 15 15 16 15 15 16 16 17
36 37 36 31 25 20 17 14 13 16 20 21 13 10 13 4 4 2 9 13 6 2 3 1 3 6 3 4 1 5 7 9 9 6 3 2 4 5 9 9 11 13 12 11 9 9 10 10 9 9 8 9 9 8 7 6 7 8 8 9 9 11 10 8 11 15 15 11 14 15 7 4 8 11 16 16 17 17 14 15 16 16 16 16 15 15 15 16
35 37 35 29 24 19 16 14 13 15 20 20 12 8 12 3 5 4 10 11 5 0 2 4 4 6 1 4 2 6 9 11 10 7 4 1 4 8 11 10 11 12 12 12 11 10 11 10 8 8 9 8 9 9 7 8 9 8 8 9 10 12 11 10 11 14 16 13 13 15 12 8 6 9 14 16 17 17 14 15 17 16 15 15 14 15 16 16
35 36 34 29 23 18 14 14 13 14 19 19 10 5 11 5 3 5 8 6 2 4 6 4 3 4 2 6 6 9 12 11 9 7 4 2 4 10 11 10 11 13 12 11 12 12 10 9 8 8 9 9 10 10 10 9 8 10 10 9 10 11 12 13 10 11 17 17 13 14 15 14 9 8 12 15 16 16 15 15 16 16 16 16 15 15 16 17
34 35 34 28 23 17 13 14 12 12 17 18 9 3 6 4 4 4 5 3 1 2 1 1 2 2 2 7 9 12 14 11 8 5 4 3 6 10 9 10 13 13 11 9 11 14 10 8 9 9 10 13 14 14 13 7 4 9 12 10 11 10 10 14 11 7 13 16 15 15 14 14 14 10 12 13 14 15 15 14 14 15 16 15 15 15 16 18
34 34 33 28 23 17 12 14 12 11 16 17 11 4 2 4 2 2 4 5 4 4 4 4 5 4 5 7 9 14 12 5 3 7 7 4 8 10 9 11 12 11 9 9 11 12 10 9 11 12 13 15 16 16 15 10 4 7 10 10 11 10 9 13 13 8 8 10 13 16 16 15 15 13 12 13 14 15 15 15 14 14 15 15 16 17 17 18
34 33 32 27 23 17 10 13 13 11 14 15 12 6 4 7 5 3 7 3 4 4 4 3 4 4 6 6 7 13 9 2 1 9 8 1 7 9 8 11 10 9 9 9 10 10 10 11 13 15 15 14 14 16 16 14 10 7 8 8 9 10 9 10 12 9 9 10 10 14 16 16 15 14 13 13 14 15 16 16 15 17 17 15 17 18 17 15
34 32 31 26 22 16 8 9 14 11 11 11 11 10 7 7 5 3 5 3 2 2 2 1 3 4 7 3 4 11 8 3 1 8 9 4 7 7 6 11 9 8 11 11 9 9 10 12 14 16 14 13 12 14 16 16 13 9 8 8 8 9 9 9 10 9 8 8 10 13 13 13 14 14 14 13 14 14 14 16 16 17 18 16 17 17 17 16
34 32 30 25 20 16 7 5 13 12 9 9 10 10 5 5 5 4 5 5 0 2 1 2 2 6 9 3 5 12 7 1 3 6 10 7 3 2 4 10 9 8 12 13 11 9 9 11 15 15 13 14 13 11 14 14 11 11 9 9 8 8 9 9 10 10 10 8 10 13 11 11 12 14 15 15 14 13 14 16 16 16 17 17 18 17 17 19
34 32 29 25 18 14 6 3 9 9 6 5 7 8 5 6 5 4 5 5 1 3 1 3 2 6 9 4 6 10 4 2 4 5 8 7 1 1 5 8 9 9 10 13 15 13 11 8 10 14 13 14 14 12 13 12 9 12 13 11 10 9 10 9 5 6 9 11 12 12 10 9 11 14 15 14 14 14 14 16 16 16 17 16 16 16 18 19
34 32 29 24 17 12 6 3 5 8 3 1 6 9 8 8 5 6 6 4 2 4 3 1 1 3 6 6 7 8 3 1 2 5 6 7 5 3 4 5 7 9 10 15 15 13 14 8 6 12 14 13 15 14 14 12 9 11 15 16 14 11 10 11 8 4 7 10 12 13 11 8 12 16 15 12 14 15 14 15 17 16 16 15 14 16 17 18
34 32 29 24 16 12 7 2 6 10 4 2 10 13 11 9 4 6 4 4 3 4 4 3 1 3 5 6 9 6 4 2 3 3 5 5 4 4 3 3 6 8 9 11 10 8 11 11 8 11 13 15 16 14 14 14 10 9 11 15 19 16 11 11 10 9 8 8 10 14 13 10 11 16 18 16 16 17 16 16 17 16 14 15 14 15 16 17
34 32 29 22 14 11 6 2 8 9 3 6 15 16 12 8 4 6 4 5 3 3 2 1 1 4 7 7 10 5 2 3 2 0 6 6 3 3 5 5 5 7 6 6 7 7 10 14 12 12 14 14 14 12 14 15 12 9 8 11 17 19 16 13 11 10 9 8 8 11 12 11 10 13 17 19 19 18 18 17 17 15 16 17 16 16 17 18
34 32 28 19 8 6 5 5 8 6 6 11 16 15 11 3 7 6 5 5 2 2 1 3 2 5 6 4 7 5 3 8 4 1 7 6 3 4 7 7 6 8 7 8 9 7 11 16 16 14 13 12 11 11 13 16 13 10 7 6 11 16 19 16 12 10 9 10 10 11 11 10 10 10 11 15 20 20 19 19 18 16 17 18 17 18 18 19
34 31 26 16 4 3 5 5 6 6 10 13 14 13 5 5 7 4 5 4 2 3 1 2 0 4 6 1 3 5 4 5 5 6 7 3 2 4 5 4 7 9 9 12 12 7 8 13 16 16 13 11 12 11 12 14 14 12 9 6 7 12 15 15 12 10 10 11 13 13 14 11 9 11 11 12 16 18 17 17 17 17 18 18 17 18 18 18
33 29 23 11 1 3 6 4 3 8 12 12 11 7 4 6 5 5 4 3 2 3 1 2 0 4 7 2 3 5 4 4 5 7 4 2 2 4 3 3 6 8 9 12 13 13 11 9 11 13 12 12 13 12 12 13 13 12 11 9 9 10 10 11 10 9 10 12 14 16 17 13 11 10 12 12 13 15 14 14 15 17 18 18 17 17 18 17
32 24 13 4 2 5 5 4 5 12 13 11 9 3 7 4 4 6 3 1 1 2 3 3 3 3 7 5 4 6 4 4 6 5 2 2 2 2 2 3 4 5 8 10 11 14 15 11 9 9 10 12 13 13 13 13 13 12 11 9 8 8 8 8 9 10 11 12 12 16 18 17 14 10 10 12 14 16 16 15 16 18 18 17 16 16 16 16
28 14 6 5 4 6 5 7 12 15 12 10 7 6 6 4 5 4 0 2 2 2 3 3 5 5 5 3 5 7 4 4 6 5 4 2 0 3 3 1 1 4 6 7 8 11 14 14 12 11 12 13 13 12 11 12 13 12 10 9 9 8 8 9 9 10 11 11 11 14 17 16 14 11 12 14 14 15 16 17 17 17 17 17 16 16 15 15
22 6 6 8 6 5 7 12 14 13 11 10 9 6 5 6 3 1 2 2 0 4 3 2 4 5 4 2 4 7 2 3 7 4 2 3 1 3 5 7 6 5 4 3 6 7 9 12 16 16 12 14 15 12 10 11 12 13 12 10 10 9 9 10 10 9 10 11 12 15 14 13 12 12 15 18 14 11 12 15 17 16 16 16 16 16 15 16
15 2 4 10 8 7 12 14 13 11 10 9 8 5 6 7 1 2 0 2 4 3 3 3 3 2 2 2 5 6 1 3 6 5 2 3 3 2 4 7 8 5 5 5 6 7 8 8 11 15 11 13 18 15 12 11 11 13 13 11 11 10 9 9 8 9 9 8 12 16 12 9 8 7 10 16 17 14 11 12 13 13 13 14 15 16 16 16
10 3 2 9 7 9 14 13 10 9 8 7 6 5 6 5 1 1 0 3 3 2 2 2 4 3 2 3 4 5 2 3 5 4 3 1 1 1 2 5 9 7 4 5 4 5 11 7 1 4 5 10 18 17 15 13 10 11 12 12 12 11 9 8 7 9 9 7 9 12 9 6 4 2 3 9 14 17 17 14 14 13 13 13 14 15 15 15
9 1 2 5 8 13 15 11 8 6 7 6 6 5 3 2 3 2 2 3 1 1 1 2 2 3 1 1 2 4 1 2 4 3 1 1 1 2 3 4 7 8 5 4 4 3 8 7 2 4 4 10 14 15 17 15 10 9 12 12 12 12 11 9 9 9 8 9 8 8 9 8 6 5 7 10 11 14 18 19 19 19 17 15 13 14 15 15
10 3 3 7 15 17 14 10 6 5 6 6 5 3 1 4 5 4 2 2 1 2 4 3 1 1 3 1 1 4 4 2 2 2 0 1 1 3 3 3 5 7 8 6 4 2 4 7 5 6 10 10 6 9 15 17 13 9 10 12 11 13 12 9 8 8 9 10 8 9 12 11 8 7 9 15 17 16 16 18 19 20 21 19 16 14 15 16
10 5 3 11 20 18 11 8 5 4 5 5 3 2 3 3 4 4 2 1 0 0 4 3 1 1 3 4 2 4 6 4 2 3 3 2 2 3 2 2 4 5 7 6 4 1 3 8 9 9 12 8 4 9 13 16 18 15 10 10 12 11 11 10 8 9 11 10 8 10 13 11 9 7 5 11 18 18 17 17 17 19 20 20 19 18 17 16
9 5 1 15 23 16 9 7 6 5 5 4 3 3 2 3 5 5 2 1 1 2 2 1 1 0 0 4 5 3 4 5 5 4 2 1 1 4 3 1 2 5 7 7 6 4 4 7 7 7 9 7 6 10 11 12 17 18 14 11 11 11 10 10 9 8 9 9 8 10 11 9 9 10 8 8 11 14 15 15 16 18 18 17 18 18 18 18
7 3 2 18 25 15 8 7 6 3 2 0 2 3 3 3 4 5 3 1 1 2 3 1 1 2 1 3 5 3 2 4 5 5 2 1 1 3 4 3 4 7 8 7 6 5 4 6 6 6 8 7 7 10 13 13 14 15 14 13 11 10 10 11 11 10 9 9 8 7 8 7 5 8 11 9 8 10 12 13 13 15 16 17 17 17 17 17
6 2 4 19 25 16 9 5 0 2 1 3 4 4 3 2 3 4 4 1 2 1 3 3 2 4 4 4 4 2 4 6 5 5 4 2 2 1 4 4 6 7 7 6 6 4 4 5 8 8 7 8 11 13 14 14 11 10 12 15 15 12 11 12 12 13 11 9 8 7 6 4 3 4 8 9 9 10 11 12 12 13 15 15 16 17 17 16
4 2 6 19 24 16 9 1 4 2 2 4 3 4 3 2 2 3 3 1 1 0 1 2 2 4 5 5 5 4 5 7 6 6 5 2 3 2 3 5 6 7 6 5 4 3 4 5 8 10 9 10 15 14 12 12 11 9 10 13 16 15 13 13 13 13 12 11 10 9 8 4 3 3 4 5 6 7 9 11 11 12 14 14 15 16 16 16
3 4 6 18 21 12 6 4 5 2 5 4 2 3 2 2 2 2 2 2 2 1 3 3 2 4 3 3 6 6 5 6 6 6 5 5 4 2 4 4 5 6 5 3 2 2 2 5 8 9 9 11 17 19 16 14 11 10 10 10 13 16 16 12 9 8 10 13 12 8 8 7 3 3 3 3 5 6 6 7 8 9 10 12 15 17 16 16
3 3 4 16 21 9 1 5 4 4 6 3 3 4 2 3 4 3 2 3 3 2 4 3 2 3 3 3 6 7 6 4 4 5 6 6 2 3 3 4 4 4 4 3 3 3 3 5 6 8 9 9 11 14 14 13 10 9 12 14 13 15 15 10 6 5 7 13 15 11 9 7 4 5 6 6 9 10 8 8 8 8 8 8 9 11 13 15
3 1 1 10 18 12 6 5 5 4 6 4 5 4 1 2 4 4 3 3 4 4 3 2 2 3 4 6 7 7 7 6 5 6 6 6 3 0 3 4 3 5 4 5 6 5 4 5 5 6 9 9 8 6 7 8 6 8 15 18 14 13 14 11 7 8 9 12 14 12 9 7 5 6 7 7 9 11 8 6 5 4 4 3 0 1 4 7
3 3 4 4 8 9 6 6 6 5 5 3 3 4 3 1 2 3 4 3 4 4 3 1 3 4 4 7 8 8 8 8 7 7 7 7 7 5 4 4 6 7 6 7 8 6 5 7 8 10 12 11 8 6 7 8 7 8 12 14 12 12 13 11 9 10 11 10 12 12 10 9 7 6 6 7 6 4 1 3 4 4 4 3 3 3 1 3
2 3 5 4 3 5 5 6 7 6 5 3 2 3 4 3 2 2 2 2 3 3 3 1 3 4 3 6 7 7 8 8 8 8 9 9 8 7 7 8 9 8 7 8 8 6 5 7 11 14 16 18 18 16 14 13 13 12 11 11 10 9 10 13 13 14 13 9 11 14 13 13 12 6 1 0 2 5 6 6 6 6 6 5 4 1 2 4
3 3 4 3 2 4 5 5 6 6 6 5 3 3 4 5 5 4 2 2 3 4 3 0 2 3 4 5 6 7 8 8 8 8 7 7 7 7 8 9 9 8 8 8 6 5 6 8 10 13 16 20 22 21 17 14 14 15 14 14 13 9 10 14 15 18 17 12 11 12 10 13 15 7 5 7 8 8 7 6 6 6 7 7 6 4 2 2
3 3 3 2 2 4 4 4 5 6 6 4 3 5 6 6 6 5 3 3 3 2 3 3 1 4 5 4 5 7 7 7 7 6 6 7 8 8 8 8 8 6 7 8 6 5 6 7 9 12 15 18 21 22 20 17 17 17 16 16 16 13 13 13 13 16 19 16 14 11 9 9 6 3 8 9 9 9 7 7 8 9 10 10 9 9 8 6
3 3 3 2 3 4 3 4 4 4 5 4 3 5 6 5 6 6 5 5 4 2 3 5 4 5 6 5 6 8 8 8 9 9 9 10 9 8 7 7 6 5 6 7 6 6 6 6 8 9 11 14 17 20 20 19 18 18 17 17 17 15 15 15 14 15 17 18 17 15 15 10 2 9 10 9 9 9 9 10 10 10 12 13 12 12 11 11
4 4 3 2 2 3 2 3 3 3 4 4 3 4 5 5 7 8 6 4 4 4 5 7 7 6 7 7 9 10 10 10 12 13 13 12 11 10 8 7 7 6 6 6 6 6 6 7 7 8 9 10 13 17 20 19 18 19 19 18 17 16 14 10 8 9 11 14 16 15 15 11 4 11 10 8 7 8 10 11 11 11 13 14 14 14 14 13
4 3 2 2 1 2 2 2 3 2 3 4 4 4 4 4 6 7 4 2 2 5 6 7 8 7 6 7 7 8 9 11 13 14 13 13 14 14 12 13 14 12 9 8 7 7 7 7 6 7 8 9 11 15 16 15 15 16 15 15 16 16 10 5 4 4 4 6 10 11 8 4 8 10 9 8 8 8 8 9 10 11 13 13 14 15 15 15
Wind_Direction
12 9 7 4 1 0 1 1 358 354 354 355 353 353 351 347 344 339 334 327 322 316 314 312 310 311 311 314 318 321 324 306 279 242 235 263 301 285 288 249 201 186 163 162 168 163 165 176 177 176 180 182 204 203 188 212 222 216 228 235 246 237 178 40 38 47 77 118 132 165 177 175 162 166 157 151 165 153 155 147 132 133 120 116 129 142 151 155
11 9 7 4 2 1 2 1 356 355 356 356 354 354 352 348 344 340 337 332 326 320 317 316 315 315 316 319 319 325 323 277 266 250 244 310 330 315 298 223 195 179 167 171 175 170 170 176 173 174 181 178 189 191 184 197 210 222 230 235 244 229 64 45 34 40 17 46 125 171 181 186 171 163 168 174 168 162 159 149 143 132 123 124 135 147 152 157
11 8 6 4 2 1 1 0 357 357 357 356 355 353 351 347 344 341 340 338 330 323 320 321 321 320 325 328 325 338 328 273 258 246 335 346 322 302 288 197 183 173 171 180 180 178 178 174 172 175 184 188 185 183 187 189 201 224 237 241 237 139 90 84 16 17 25 11 171 170 178 192 171 160 180 187 168 172 175 157 157 147 138 140 144 151 156 161
10 8 6 4 1 0 360 359 357 358 357 354 353 352 350 347 345 343 342 342 336 329 323 323 323 327 341 340 339 351 298 267 211 71 3 350 316 281 253 185 174 171 177 188 185 185 184 173 173 183 193 198 191 189 198 189 192 215 226 246 21 110 196 131 77 58 49 20 152 161 177 189 170 169 190 191 176 185 190 171 169 157 145 147 150 156 161 163
10 8 6 3 1 359 358 358 357 357 355 353 351 349 348 346 345 344 343 339 335 330 324 321 321 339 355 349 357 336 262 259 127 32 356 354 328 265 216 177 172 173 181 190 187 189 186 175 178 191 205 208 191 194 208 198 208 233 225 248 296 205 187 122 113 69 34 31 103 160 184 180 170 185 199 199 194 175 177 173 167 154 147 150 155 161 165 165
10 8 5 3 0 359 357 356 356 356 354 350 347 345 344 342 343 342 339 332 331 330 323 318 325 359 1 350 354 260 262 308 90 8 0 3 355 296 184 172 170 174 182 184 183 186 184 178 183 193 207 216 202 204 214 200 213 244 231 236 251 247 239 162 170 54 358 14 107 159 181 176 182 196 202 211 212 65 106 154 152 150 150 152 156 163 169 169
9 7 5 2 360 358 357 355 355 354 350 347 343 340 338 337 339 338 332 326 329 331 320 316 341 9 2 346 305 238 254 344 63 2 2 6 4 77 165 166 168 175 181 179 179 183 182 182 190 197 204 216 213 212 213 197 211 237 248 239 240 247 243 224 225 279 305 291 300 206 189 194 198 202 196 210 214 102 115 138 143 148 150 153 157 166 171 172
8 6 4 2 359 358 356 355 355 351 347 344 340 336 333 332 334 332 326 325 331 333 325 332 353 4 4 336 281 250 236 13 14 352 359 10 19 132 155 162 172 179 184 185 183 183 183 187 194 199 207 214 215 212 206 202 216 229 246 254 251 254 246 242 249 259 267 268 276 237 219 209 200 208 201 208 200 148 136 137 144 149 152 158 161 167 171 173
7 5 3 1 359 357 355 355 354 350 346 343 339 334 329 329 330 327 326 332 338 343 347 348 353 348 348 289 279 269 79 14 354 354 3 18 65 146 155 166 178 182 188 190 188 187 187 191 196 199 216 219 211 213 207 211 220 221 238 248 252 256 248 246 245 243 252 251 255 240 226 212 196 209 212 208 188 147 146 145 147 153 157 162 164 168 171 173
7 5 2 0 358 356 355 354 354 349 345 342 338 332 330 331 328 329 335 344 356 355 348 334 320 308 285 270 270 267 47 2 340 2 7 25 114 160 168 177 182 186 191 191 192 194 192 195 197 200 239 235 216 220 212 214 231 220 240 247 250 257 255 251 250 246 251 250 247 246 234 208 185 202 209 188 172 153 154 153 153 158 162 165 167 170 172 174
6 4 1 360 357 356 355 354 354 350 346 341 335 333 337 340 339 342 350 1 357 340 332 293 285 279 257 266 277 18 35 5 351 359 8 42 120 175 187 189 189 193 194 192 197 199 200 200 195 196 238 232 214 225 222 225 252 275 267 260 249 252 253 248 250 247 246 244 234 235 241 219 183 203 212 160 159 164 162 160 159 163 166 167 168 170 173 177
5 3 1 360 358 357 357 356 356 352 348 339 336 342 351 355 352 356 4 353 341 333 331 281 267 262 257 252 5 26 14 347 349 350 4 48 113 183 202 204 198 201 201 200 201 201 205 203 197 200 203 209 209 219 230 227 243 257 261 270 257 248 247 239 237 236 231 226 210 216 234 216 192 211 213 156 159 171 168 166 165 167 167 168 171 171 175 180
4 2 1 359 358 359 358 358 358 356 350 339 340 350 357 354 352 8 2 345 340 343 16 345 209 233 263 223 78 22 341 330 337 344 350 11 139 168 196 204 201 207 213 215 209 202 206 206 206 212 213 235 217 177 301 225 227 244 243 256 261 250 243 229 221 220 221 218 195 206 229 202 189 210 203 162 166 175 172 171 170 170 169 170 173 174 178 182
3 2 1 360 359 360 359 359 358 360 354 343 345 355 352 346 351 40 351 348 348 26 55 46 75 239 263 105 95 1 360 350 328 332 334 254 170 158 172 187 199 204 215 227 216 201 205 212 215 221 225 241 256 330 258 227 212 230 230 234 244 247 236 212 208 209 211 205 189 211 238 206 202 205 189 167 173 178 176 175 173 173 171 172 175 176 182 184
3 1 1 0 0 1 0 359 357 1 357 347 346 354 350 340 188 250 350 355 354 46 46 46 289 249 255 105 106 357 11 6 346 338 334 228 199 168 164 174 189 196 204 216 209 192 197 209 214 222 218 225 259 259 230 223 212 216 220 222 221 234 232 198 195 205 210 195 186 212 230 214 224 202 175 171 180 180 180 179 176 177 176 175 177 178 183 185
2 1 1 1 2 2 2 0 355 0 360 351 346 355 355 335 196 281 345 355 354 55 46 279 270 267 288 71 57 359 14 5 0 354 349 234 220 166 150 157 167 179 195 202 197 187 192 204 210 222 222 213 226 237 230 220 216 212 217 224 213 216 226 208 192 198 212 201 188 210 222 206 219 193 171 174 184 184 184 184 180 180 179 178 179 179 182 183
2 1 1 2 3 3 4 2 355 0 3 353 341 356 3 342 200 293 340 353 357 79 260 274 294 267 283 60 342 349 3 360 4 5 13 312 216 161 143 146 158 168 178 185 189 187 191 199 203 214 223 221 215 220 227 218 211 203 210 228 222 216 222 217 194 190 207 214 201 208 220 221 203 169 170 178 185 189 189 187 184 183 181 181 182 181 182 183
2 0 1 3 4 4 7 7 1 0 5 0 346 359 8 359 212 299 326 331 293 225 237 260 274 238 115 46 360 350 346 340 342 339 0 42 189 170 152 147 156 165 167 169 182 187 187 194 201 208 212 218 216 210 215 217 212 206 202 217 223 217 221 219 206 186 197 211 213 210 218 228 220 171 173 182 186 193 196 192 188 185 184 183 184 184 184 186
1 0 0 2 2 5 10 12 9 359 8 14 3 327 351 342 221 254 304 308 277 245 255 321 321 282 3 7 0 344 328 314 315 338 35 87 167 173 158 152 159 168 172 163 177 186 185 191 200 210 209 207 210 210 217 224 233 226 215 217 223 217 220 222 217 185 190 209 218 219 223 227 224 202 185 187 189 197 202 198 191 188 186 185 186 187 187 189
1 359 358 360 359 2 10 18 16 0 11 18 357 311 309 337 233 207 344 358 32 8 345 6 353 339 335 344 355 343 329 290 321 34 55 97 166 173 155 152 163 176 189 172 170 180 185 200 205 210 213 208 209 214 224 231 245 251 236 228 230 228 224 220 217 199 196 218 219 220 229 228 225 217 200 192 194 199 204 201 195 192 191 190 190 190 189 191
1 358 356 356 356 357 7 19 17 4 15 19 8 20 45 14 7 4 343 337 82 18 325 1 337 323 334 331 349 347 340 226 33 50 47 77 180 186 162 160 172 182 198 183 164 171 190 212 213 213 218 215 213 214 223 230 227 239 246 236 233 233 231 224 220 209 209 230 226 220 230 230 226 225 214 199 199 204 204 202 199 196 196 194 193 192 190 188
358 358 355 351 352 355 353 11 14 10 16 19 26 43 56 30 355 310 304 277 102 35 299 315 283 330 355 335 7 341 312 246 27 57 26 339 199 206 180 180 193 185 188 188 174 177 200 221 220 214 218 220 222 218 217 226 227 230 240 241 238 229 231 234 228 215 212 229 232 225 231 235 227 227 228 214 206 208 205 204 203 199 198 196 195 193 187 184
355 357 354 348 347 349 336 356 9 12 17 17 32 40 37 10 331 260 247 273 247 147 220 358 313 359 9 29 16 337 311 307 349 42 14 335 206 219 208 197 210 197 186 193 195 194 205 220 220 217 214 215 220 214 210 217 225 229 233 238 240 227 226 233 220 211 219 232 240 238 237 240 231 224 227 222 212 209 206 208 207 202 202 200 196 192 187 185
352 354 353 347 340 342 334 321 357 8 14 12 35 34 359 335 322 242 232 270 235 155 104 24 341 0 3 345 329 323 320 9 328 19 11 335 329 254 231 218 222 212 195 202 209 218 223 212 212 220 214 211 212 204 208 217 223 228 229 234 240 230 227 238 228 205 223 231 236 245 247 240 232 224 221 216 213 211 207 209 210 208 207 204 198 194 191 189
350 350 352 346 336 339 324 264 359 359 331 358 19 1 334 329 306 234 240 262 199 152 149 174 233 7 349 310 318 323 291 254 342 15 7 340 326 282 240 234 230 221 205 205 215 229 232 213 198 218 207 204 215 213 214 219 227 229 224 228 239 242 234 236 245 235 231 227 216 223 241 239 226 226 224 212 209 211 209 209 210 209 206 203 201 197 195 192
347 348 350 345 337 334 305 230 8 342 304 23 358 341 330 329 281 209 240 257 201 142 153 201 209 27 353 325 339 330 228 180 46 8 1 357 311 290 279 223 211 235 226 209 219 235 234 221 206 210 202 203 220 225 217 215 231 237 218 218 229 241 243 235 239 236 237 242 213 207 228 244 225 223 223 216 214 210 207 209 209 207 201 200 202 198 195 193
346 347 347 343 341 340 325 321 345 337 336 349 340 334 329 321 214 184 241 245 197 123 133 108 45 9 357 344 337 313 210 359 343 133 12 354 288 257 263 230 198 236 235 209 227 222 218 223 211 203 207 211 220 225 215 211 226 240 224 217 221 229 236 234 238 239 241 259 239 207 221 248 240 226 219 215 217 212 205 209 209 204 200 200 202 199 196 194
345 346 344 339 336 349 348 322 325 348 1 333 328 328 324 283 183 189 260 248 138 100 97 55 41 334 332 338 347 349 16 346 306 67 10 323 262 238 247 248 248 250 221 209 234 209 196 217 218 207 210 219 222 222 215 211 223 237 241 242 226 225 231 233 239 244 242 251 246 216 212 238 243 232 221 214 218 216 206 207 208 202 200 202 202 201 198 196
345 345 341 333 320 5 354 311 302 341 344 328 326 328 316 182 188 219 265 255 109 111 100 31 134 327 323 265 52 35 24 350 335 350 336 279 223 250 254 282 283 271 242 228 241 233 202 214 222 217 213 221 225 221 214 213 223 235 240 252 237 228 230 231 235 243 243 243 243 228 216 230 243 229 218 213 219 217 207 207 210 203 200 202 202 202 200 196
346 344 338 330 307 3 333 272 260 330 333 328 331 326 197 182 222 243 240 232 93 105 105 20 250 324 336 325 86 49 41 27 355 326 291 209 184 230 242 299 274 266 253 238 241 248 240 221 224 230 223 221 226 224 219 218 224 232 235 234 232 228 224 227 230 235 243 241 238 234 228 235 246 231 219 217 216 215 211 208 209 206 201 201 202 203 201 196
346 345 345 357 45 359 320 265 315 331 329 327 329 270 212 216 246 252 256 192 84 125 149 65 51 0 357 7 32 25 35 45 10 338 305 198 194 207 223 225 234 249 242 234 235 241 242 230 220 229 223 217 224 226 221 218 218 226 230 226 226 223 213 218 221 220 235 241 233 232 233 237 244 235 226 225 214 211 219 215 208 207 203 200 202 203 201 196
347 356 41 63 22 359 325 308 322 323 324 320 295 243 239 252 235 241 134 156 205 94 111 45 35 26 0 358 20 10 2 31 17 358 351 315 187 51 13 358 326 256 233 228 225 222 231 232 224 224 217 210 217 221 216 212 212 218 221 216 218 215 205 209 211 213 228 238 232 228 228 233 244 242 237 238 223 210 219 220 211 207 203 199 200 202 200 198
349 18 76 36 0 337 321 320 319 314 318 306 270 246 258 260 251 292 86 157 31 58 67 18 24 17 345 318 17 7 346 35 12 349 344 302 248 95 69 38 5 282 261 284 255 225 222 222 221 225 215 202 210 215 210 205 205 212 211 207 213 210 204 207 210 218 229 230 225 226 230 236 246 244 234 235 234 221 219 220 216 211 206 201 201 202 200 198
349 144 68 14 354 335 326 319 313 308 305 286 259 244 244 247 283 45 72 77 75 86 79 25 348 343 24 49 23 6 357 69 22 337 308 254 236 147 103 50 18 322 287 280 268 250 242 225 211 218 209 195 207 218 221 214 208 211 209 210 219 218 214 212 211 219 228 230 215 212 223 236 235 233 226 226 227 226 223 219 216 215 212 207 204 204 202 200
358 168 13 0 339 332 329 313 304 295 277 261 247 240 243 252 312 122 90 64 89 124 101 29 301 274 135 103 63 37 3 33 27 336 305 297 301 17 57 40 25 4 310 263 262 255 253 259 216 236 238 204 206 213 220 225 218 204 203 213 219 220 226 232 235 236 240 244 219 203 211 228 215 174 193 216 219 218 219 219 219 219 215 213 210 206 203 201
6 197 276 347 339 334 330 318 306 273 245 238 228 230 243 7 22 31 42 32 41 13 320 225 262 274 218 137 98 76 38 334 354 329 258 31 348 40 53 40 27 15 0 304 294 279 252 247 42 0 264 218 219 218 212 219 226 200 199 214 217 220 231 240 245 248 252 250 228 207 216 224 232 233 211 210 217 215 216 218 220 220 216 214 214 209 204 202
350 292 260 350 352 340 332 327 308 244 225 232 225 235 26 55 30 21 42 12 24 8 303 255 114 344 308 310 68 36 0 294 322 329 253 160 135 80 62 57 44 21 11 343 301 326 289 270 297 294 240 214 243 247 220 220 232 223 204 204 208 221 231 239 243 236 234 240 230 217 225 222 223 233 211 208 215 216 214 216 216 216 215 214 214 210 207 205
322 284 265 358 353 341 336 332 304 235 224 231 192 82 35 66 44 34 57 27 11 277 281 275 49 13 305 314 347 12 336 314 8 343 290 229 141 86 45 44 56 20 360 339 291 300 310 278 275 262 238 219 226 238 228 222 228 240 241 209 201 213 217 216 230 233 228 234 233 223 229 230 223 222 200 202 211 214 216 218 218 215 213 213 214 211 206 205
298 257 261 0 350 344 344 319 281 248 239 234 159 103 60 76 59 43 50 34 275 272 285 298 357 279 258 330 330 347 332 328 341 326 292 251 120 90 62 351 14 2 348 326 293 295 297 272 266 238 223 228 224 219 222 215 215 232 251 240 218 216 216 212 218 234 237 240 239 224 221 227 228 227 227 213 204 209 216 220 221 219 215 212 212 212 207 203
292 241 49 0 348 346 337 293 268 258 241 21 74 98 94 77 58 50 47 0 286 288 317 357 248 260 281 314 300 315 338 314 309 303 304 311 229 110 85 24 348 344 335 305 274 276 266 255 266 243 213 225 232 219 221 219 207 211 227 234 224 215 219 220 219 225 235 243 242 231 224 224 214 216 224 218 201 206 216 223 224 221 219 215 210 210 208 204
297 249 29 355 345 337 313 284 330 22 99 94 72 83 76 26 23 58 70 3 304 322 326 320 283 291 305 294 287 329 316 292 290 287 276 258 238 147 86 36 348 338 328 290 253 256 265 253 259 254 235 233 229 217 223 236 233 222 222 220 219 218 217 219 219 216 225 240 242 241 241 225 148 173 208 211 211 216 219 224 228 223 222 221 211 207 207 205
306 3 359 345 342 326 304 48 84 23 69 88 69 72 46 349 5 44 68 23 300 121 273 273 281 293 290 291 303 316 298 289 287 282 277 264 278 306 63 37 343 324 319 293 270 298 310 278 262 254 251 260 260 255 259 272 278 278 258 228 218 220 220 220 222 217 219 231 235 244 250 233 120 122 175 194 210 224 224 227 231 225 221 219 214 209 206 203
7 23 356 348 344 314 282 77 87 61 71 84 97 76 35 2 31 26 40 6 315 266 266 263 272 288 287 301 298 292 293 292 282 277 278 265 268 351 37 11 336 314 302 292 294 333 291 253 255 257 255 264 271 271 271 271 272 266 253 236 222 220 220 225 240 243 232 225 221 227 238 234 205 180 209 240 248 250 245 241 244 241 229 218 212 209 204 198
6 355 12 7 4 351 313 59 64 76 75 97 121 92 75 51 28 0 28 22 354 300 276 284 293 285 295 301 286 285 294 291 273 275 278 266 251 62 5 314 319 311 316 349 357 349 295 249 250 257 251 239 242 248 242 237 246 250 233 228 229 228 228 234 259 270 248 233 229 225 223 227 220 206 217 243 255 253 247 245 249 252 250 238 217 205 200 196
306 287 63 24 26 41 61 44 43 71 76 88 91 71 73 88 41 3 359 22 14 337 293 307 327 300 304 296 280 282 289 281 277 284 283 276 267 239 288 289 285 282 314 346 324 304 279 262 259 256 246 227 213 224 232 227 242 251 231 226 231 235 236 238 240 235 230 233 237 234 228 220 194 183 199 223 247 251 244 247 260 264 270 277 324 139 191 193
312 352 6 24 44 55 64 51 46 63 69 74 79 47 16 38 73 23 343 357 36 4 330 348 312 285 305 307 291 285 285 277 277 284 286 284 279 277 285 286 275 275 298 307 286 272 264 256 254 255 254 256 268 294 309 311 303 269 238 232 234 233 235 240 238 231 227 230 234 234 245 243 209 187 201 214 236 261 310 25 16 19 24 41 67 68 144 197
331 12 9 2 30 44 52 51 45 52 52 39 45 43 26 16 38 49 357 345 16 341 310 0 330 293 309 317 300 286 283 279 278 280 283 286 286 285 279 269 264 265 274 274 258 249 258 251 249 254 258 266 277 286 291 296 293 282 272 264 252 235 233 234 233 232 230 236 233 225 235 246 234 222 234 340 11 22 34 25 15 14 15 24 34 33 208 205
4 42 29 337 330 32 41 35 34 46 51 51 54 36 32 36 32 37 37 337 327 326 309 5 35 335 317 311 294 284 284 282 280 280 284 289 290 287 277 266 260 253 251 254 244 239 256 256 255 259 261 265 273 277 278 278 276 274 276 275 268 259 245 235 233 232 228 234 240 226 230 243 238 244 6 11 1 8 26 19 9 11 10 8 2 345 314 244
31 62 49 356 9 56 54 37 27 43 45 35 44 37 24 30 32 25 10 316 305 349 324 292 340 338 311 287 268 269 273 276 278 284 289 286 284 284 283 274 259 239 240 250 242 233 250 258 260 264 268 267 268 272 273 271 268 265 265 265 265 265 254 240 234 231 227 231 239 244 265 264 246 340 1 352 345 350 8 13 9 11 6 359 351 346 347 349
32 55 35 22 75 72 62 47 25 51 55 19 19 40 19 10 15 5 347 327 319 329 311 301 313 315 296 273 255 259 266 270 272 276 280 280 279 276 275 276 262 233 237 252 244 227 235 255 265 275 279 270 267 272 271 263 259 261 261 260 260 260 252 240 231 225 225 229 229 237 256 259 28 24 348 332 340 344 354 5 9 8 1 353 348 346 347 345
44 50 3 330 78 62 40 51 34 50 64 30 19 30 8 359 360 342 333 344 328 311 311 306 304 301 284 262 254 259 269 275 273 273 274 274 275 274 269 267 265 256 246 246 242 227 230 255 268 272 276 272 269 269 265 259 256 254 253 251 250 250 244 235 230 225 228 231 223 221 236 245 354 7 339 323 329 333 347 358 1 2 357 350 345 341 339 336
49 62 352 310 72 64 28 50 46 46 58 34 16 13 349 339 346 337 336 0 314 306 308 300 298 300 283 269 274 284 289 287 282 280 278 273 269 269 265 258 256 256 251 246 248 239 237 252 261 260 270 279 275 267 261 256 251 246 243 238 238 240 225 163 156 209 229 243 229 218 227 288 347 349 337 331 328 330 346 357 0 359 353 348 344 337 332 329